Location: Detroit
(42.3310°N, 83.0460°W)
Time: 07:09:30
(UTC-04:00)

Explorer 11/Cluster Stage 4 - Pass Details

Date: 09 February 2023
Orbit: 466 x 1241 km, 28.8° (Epoch: 02 April)

Event Time Altitude Azimuth Distance (km) Brightness Sun altitude
Exits shadow 05:21:45 25° 206° (SSW) 2,090 8.4 -25.4°
Maximum altitude 05:23:44 28° 182° (S) 2,005 8.5 -25.0°
Drops below altitude 10° 05:30:15 10° 127° (SE) 3,172 10.3 -23.8°
Sets 05:33:41 0° 117° (ESE) 4,165 11.3 -23.2°
